GW1009 Weather Reports


time (UTC)temp
C
wind
direction
speed
KPH
gust
KPH
rain 1hr
cm
rain 24hr
cm
rain mn
cm
humidity
%
barometer
mb
20260904164057 21 311 6.4 22.5 0.00 0.00 0.00 61 1011.4
20260904163556 21 317 11.3 27.4 0.00 0.00 0.00 64 1011.4
20260904163056 21 313 14.5 27.4 0.00 0.00 0.00 62 1011.5
20260904162556 21 302 12.9 25.7 0.00 0.00 0.00 62 1011.6
20260904162058 21 311 9.7 22.5 0.00 0.00 0.00 63 1011.5
20260904161556 21 309 11.3 24.1 0.00 0.00 0.00 63 1011.5
20260904161055 21 338 17.7 24.1 0.00 0.00 0.00 59 1011.5
20260904160554 22 315 9.7 22.5 0.00 0.00 0.00 63 1011.5
20260904160054 22 306 14.5 22.5 0.00 0.00 0.00 63 1011.4
20260904155553 21 328 8.0 24.1 0.00 0.00 0.00 65 1011.6
20260904155052 21 300 14.5 24.1 0.00 0.00 0.00 64 1011.6
20260904154552 21 315 16.1 24.1 0.00 0.00 0.00 63 1011.8
20260904154055 21 257 9.7 22.5 0.00 0.00 0.00 62 1011.7
20260904153551 21 290 12.9 22.5 0.00 0.00 0.00 65 1011.9
20260904153050 21 275 8.0 22.5 0.00 0.00 0.00 66 1011.8
20260904152552 21 301 11.3 22.5 0.00 0.00 0.00 65 1011.9
20260904152050 21 320 8.0 20.9 0.00 0.00 0.00 67 1011.9
20260904151549 21 294 12.9 22.5 0.00 0.00 0.00 67 1011.9
20260904151049 21 323 11.3 24.1 0.00 0.00 0.00 68 1011.9
20260904150547 21 327 14.5 24.1 0.00 0.00 0.00 69 1011.9
20260904150104 20 310 11.3 19.3 0.00 0.00 0.00 70 1011.8
20260904145547 20 313 9.7 19.3 0.00 0.00 0.00 71 1011.8
20260904145046 20 319 12.9 19.3 0.00 0.00 0.00 71 1011.9
20260904144545 20 300 9.7 19.3 0.00 0.00 0.00 71 1011.9
20260904144045 20 264 4.8 19.3 0.00 0.00 0.00 75 1012.1
20260904143544 20 311 9.7 19.3 0.00 0.00 0.00 71 1012.1
20260904143044 20 306 8.0 19.3 0.00 0.00 0.00 75 1012.0
20260904142543 20 283 6.4 19.3 0.00 0.00 0.00 77 1012.1
20260904142042 20 331 6.4 16.1 0.00 0.00 0.00 76 1012.0
20260904141545 19 324 6.4 17.7 0.00 0.00 0.00 77 1012.2
20260904141040 19 302 8.0 14.5 0.00 0.00 0.00 77 1012.2
20260904140541 19 292 8.0 19.3 0.00 0.00 0.00 78 1012.2
20260904140041 19 280 9.7 19.3 0.00 0.00 0.00 77 1012.1
20260904135539 20 284 8.0 20.9 0.00 0.00 0.00 76 1012.1
20260904135037 19 296 11.3 20.9 0.00 0.00 0.00 77 1011.9
20260904134546 19 304 3.2 14.5 0.00 0.00 0.00 81 1011.9
20260904134034 18 321 8.0 14.5 0.00 0.00 0.00 83 1011.7
20260904133533 18 284 6.4 16.1 0.00 0.00 0.00 83 1011.9
20260904133033 18 292 6.4 16.1 0.00 0.00 0.00 85 1011.7
20260904132535 18 263 3.2 11.3 0.00 0.00 0.00 86 1011.7
20260904132032 18 306 3.2 8.0 0.00 0.00 0.00 87 1011.6
20260904131529 18 294 4.8 11.3 0.00 0.00 0.00 87 1011.8
20260904131029 18 286 4.8 14.5 0.00 0.00 0.00 87 1011.8
20260904130533 18 305 8.0 16.1 0.00 0.00 0.00 86 1011.9
20260904130034 18 282 8.0 16.1 0.00 0.00 0.00 87 1011.7
20260904125527 18 311 8.0 16.1 0.00 0.00 0.00 89 1011.8
20260904125026 18 317 3.2 12.9 0.00 0.00 0.00 90 1011.7
20260904124525 18 292 4.8 12.9 0.00 0.00 0.00 91 1011.8
20260904124029 18 312 6.4 0.0 0.00 0.00 0.00 92 1011.9
20260904123522 17 294 3.2 12.9 0.00 0.00 0.00 91 1011.8
20260904123022 17 305 3.2 12.9 0.00 0.00 0.00 92 1011.8
20260904122525 17 299 4.8 11.3 0.00 0.00 0.00 93 1011.8
20260904122020 17 300 3.2 9.7 0.00 0.00 0.00 93 1011.7
20260904121519 17 311 4.8 9.7 0.00 0.00 0.00 93 1011.7
20260904121017 17 311 3.2 9.7 0.00 0.00 0.00 93 1011.7
20260904120518 17 279 4.8 9.7 0.00 0.00 0.00 93 1011.6
20260904120019 17 360 3.2 12.9 0.00 0.00 0.00 94 1011.6
20260904115520 17 282 3.2 12.9 0.00 0.00 0.00 94 1011.7
20260904115016 17 360 3.2 12.9 0.00 0.00 0.00 94 1011.6
20260904114529 17 360 1.6 8.0 0.00 0.00 0.00 94 1011.5
20260904114017 17 360 1.6 8.0 0.00 0.00 0.00 94 1011.5
20260904113516 17 360 3.2 8.0 0.00 0.00 0.00 94 1011.4
20260904113015 17 280 1.6 6.4 0.00 0.00 0.00 94 1011.5
20260904112514 16 301 1.6 8.0 0.00 0.00 0.00 94 1011.3
20260904112013 16 248 3.2 8.0 0.00 0.00 0.00 94 1011.2
20260904111523 16 288 3.2 11.3 0.00 0.00 0.00 94 1011.2
20260904111013 16 271 4.8 11.3 0.00 0.00 0.00 94 1011.2
20260904110512 16 304 3.2 11.3 0.00 0.00 0.00 94 1011.2
20260904110012 16 295 3.2 9.7 0.00 0.00 0.00 94 1011.1
20260904105513 16 305 3.2 8.0 0.00 0.00 0.00 94 1011.0
20260904105011 16 276 0.0 9.7 0.00 0.00 0.00 94 1010.9
20260904104510 16 360 1.6 9.7 0.00 0.00 0.00 94 1010.9
20260904104011 16 264 0.0 6.4 0.00 0.00 0.00 94 1010.8
20260904103510 16 360 0.0 6.4 0.00 0.00 0.00 94 1010.8
20260904103011 16 360 0.0 0.0 0.00 0.00 0.00 94 1010.8
20260904102513 16 360 0.0 0.0 0.00 0.00 0.00 94 1010.7
20260904102010 16 223 0.0 0.0 0.00 0.00 0.00 94 1010.6
20260904101510 16 222 0.0 0.0 0.00 0.00 0.00 94 1010.6
20260904101009 16 223 0.0 1.6 0.00 0.00 0.00 94 1010.6
20260904100509 16 360 0.0 1.6 0.00 0.00 0.00 94 1010.6
20260904100010 16 360 0.0 3.2 0.00 0.00 0.00 94 1010.6
20260904095513 16 360 1.6 3.2 0.00 0.00 0.00 94 1010.6
20260904095008 16 360 0.0 3.2 0.00 0.00 0.00 94 1010.5
20260904094518 16 360 0.0 4.8 0.00 0.00 0.00 94 1010.5
20260904094008 16 360 0.0 4.8 0.00 0.00 0.00 94 1010.5
20260904093508 16 317 0.0 3.2 0.00 0.00 0.00 94 1010.4
20260904093008 16 259 0.0 0.0 0.00 0.00 0.00 94 1010.4
20260904092511 15 260 0.0 0.0 0.00 0.00 0.00 94 1010.3
20260904092009 15 259 0.0 0.0 0.00 0.00 0.00 94 1010.3
20260904091507 15 260 0.0 0.0 0.00 0.00 0.00 94 1010.2
20260904091008 15 260 0.0 0.0 0.00 0.00 0.00 94 1010.3
20260904090508 15 260 0.0 0.0 0.00 0.00 0.00 94 1010.2
20260904090007 15 260 0.0 0.0 0.00 0.00 0.00 94 1010.3
20260904085507 15 260 0.0 0.0 0.00 0.00 0.00 94 1010.2
20260904085007 15 260 0.0 0.0 0.00 0.00 0.00 93 1010.2
20260904084511 16 360 0.0 0.0 0.00 0.00 0.00 94 1010.2
20260904084006 16 260 0.0 0.0 0.00 0.00 0.00 94 1010.2
20260904083508 16 260 0.0 1.6 0.00 0.00 0.00 94 1010.2
20260904083010 16 260 0.0 1.6 0.00 0.00 0.00 94 1010.2
20260904082507 16 309 0.0 0.0 0.00 0.00 0.00 94 1010.2
20260904082009 16 309 0.0 6.4 0.00 0.00 0.00 94 1010.2
20260904081507 16 308 0.0 6.4 0.00 0.00 0.00 94 1010.2
20260904081003 16 297 0.0 0.0 0.00 0.00 0.00 94 1010.1
20260904080503 16 296 0.0 0.0 0.00 0.00 0.00 94 1010.0
20260904080006 16 297 0.0 0.0 0.00 0.00 0.00 93 1010.1
20260904075503 16 297 0.0 0.0 0.00 0.00 0.00 93 1010.1
20260904075002 16 297 0.0 0.0 0.00 0.00 0.00 93 1010.0
20260904074501 16 298 0.0 0.0 0.00 0.00 0.00 93 1010.0
20260904074002 16 298 0.0 0.0 0.00 0.00 0.00 93 1010.0
20260904073502 16 298 0.0 0.0 0.00 0.00 0.00 93 1010.1
20260904073001 16 298 0.0 0.0 0.00 0.00 0.00 93 1010.0
20260904072601 15 297 0.0 0.0 0.00 0.00 0.00 93 1010.0
20260904072100 15 360 0.0 0.0 0.00 0.00 0.00 93 1009.9
20260904071559 15 360 0.0 0.0 0.00 0.00 0.00 93 1010.0
20260904071059 15 298 0.0 0.0 0.00 0.00 0.00 93 1010.0
20260904070558 15 298 0.0 0.0 0.00 0.00 0.00 93 1010.0
20260904070100 15 298 0.0 0.0 0.00 0.00 0.00 93 1009.9
20260904065556 16 298 0.0 0.0 0.00 0.00 0.00 92 1010.0
20260904065055 16 298 0.0 0.0 0.00 0.00 0.00 92 1010.0
20260904064554 16 298 0.0 0.0 0.00 0.00 0.00 92 1010.1
20260904064053 16 298 0.0 0.0 0.00 0.00 0.00 92 1010.1
20260904063555 16 298 0.0 0.0 0.00 0.00 0.00 92 1010.1
20260904063058 16 298 0.0 0.0 0.00 0.00 0.00 92 1010.2
20260904062554 16 298 0.0 0.0 0.00 0.00 0.00 92 1010.1
20260904062051 16 298 0.0 0.0 0.00 0.00 0.00 92 1010.3
20260904061550 16 298 0.0 0.0 0.00 0.00 0.00 92 1010.3
20260904061054 16 298 0.0 0.0 0.00 0.00 0.00 92 1010.3
20260904060549 16 298 0.0 0.0 0.00 0.00 0.00 92 1010.4
20260904060050 16 298 0.0 0.0 0.00 0.00 0.00 92 1010.5
20260904055547 16 298 0.0 0.0 0.00 0.00 0.00 92 1010.6
20260904055047 16 298 0.0 0.0 0.00 0.00 0.00 92 1010.7
20260904054549 16 298 0.0 0.0 0.00 0.00 0.00 92 1010.6
20260904054046 16 298 0.0 0.0 0.00 0.00 0.00 92 1010.7
20260904053545 16 298 0.0 0.0 0.00 0.00 0.00 92 1010.8
20260904053046 16 298 0.0 0.0 0.00 0.00 0.00 92 1010.8
20260904052547 17 298 0.0 0.0 0.00 0.00 0.00 92 1010.8
20260904052045 17 298 0.0 0.0 0.00 0.00 0.00 92 1010.8
20260904051546 17 298 0.0 0.0 0.00 0.00 0.00 92 1010.8
20260904051043 17 298 0.0 0.0 0.00 0.00 0.00 92 1010.9
20260904050543 17 298 0.0 0.0 0.00 0.00 0.00 92 1010.9
20260904050043 17 298 0.0 0.0 0.00 0.00 0.00 92 1011.0
20260904045543 17 298 0.0 0.0 0.00 0.00 0.00 92 1011.0
20260904045043 17 298 0.0 0.0 0.00 0.00 0.00 92 1010.9
20260904044543 17 298 0.0 0.0 0.00 0.00 0.00 91 1011.0
20260904044042 17 298 0.0 0.0 0.00 0.00 0.00 91 1010.9
20260904043542 17 298 0.0 0.0 0.00 0.00 0.00 91 1011.0
20260904043047 17 298 0.0 0.0 0.00 0.00 0.00 91 1010.9
20260904042542 17 298 0.0 0.0 0.00 0.00 0.00 91 1010.9
20260904042042 17 298 0.0 0.0 0.00 0.00 0.00 91 1010.7
20260904041540 17 298 0.0 0.0 0.00 0.00 0.00 91 1010.7
20260904041040 17 298 0.0 0.0 0.00 0.00 0.00 91 1010.8
20260904040542 17 298 0.0 0.0 0.00 0.00 0.00 91 1010.9
20260904040039 17 299 0.0 0.0 0.00 0.00 0.00 91 1010.9
20260904035540 17 299 0.0 0.0 0.00 0.10 0.00 91 1010.9
20260904035039 17 299 0.0 0.0 0.00 0.10 0.00 91 1011.0
20260904034544 17 299 0.0 0.0 0.00 0.10 0.00 91 1011.0
20260904034038 17 299 0.0 0.0 0.00 0.10 0.00 91 1011.0
20260904033538 17 299 0.0 0.0 0.00 0.10 0.00 91 1011.0
20260904033039 17 299 0.0 0.0 0.00 0.10 0.00 91 1010.9
20260904032537 17 298 0.0 0.0 0.00 0.10 0.00 91 1011.0
20260904032037 17 298 0.0 0.0 0.00 0.10 0.00 90 1011.1
20260904031536 17 298 0.0 0.0 0.00 0.10 0.00 90 1011.2
20260904031035 17 298 0.0 0.0 0.00 0.10 0.00 91 1011.1
20260904030535 17 298 0.0 0.0 0.00 0.10 0.00 91 1011.1
20260904030035 17 298 0.0 0.0 0.00 0.10 0.00 90 1011.2
20260904025535 17 298 0.0 0.0 0.00 0.30 0.00 90 1011.2
20260904025035 17 298 0.0 0.0 0.00 0.30 0.00 90 1011.1
20260904024545 17 298 0.0 0.0 0.00 0.30 0.00 90 1011.2
20260904024035 17 298 0.0 0.0 0.00 0.30 0.00 89 1011.3
20260904023534 17 298 0.0 0.0 0.00 0.30 0.00 89 1011.2
20260904023035 17 298 0.0 0.0 0.00 0.30 0.00 89 1011.2
20260904022535 17 298 0.0 0.0 0.00 0.30 0.00 89 1011.3
20260904022034 17 298 0.0 0.0 0.00 0.30 0.00 88 1011.3
20260904021535 17 298 0.0 0.0 0.00 0.30 0.00 88 1011.4
20260904021036 17 298 0.0 0.0 0.00 0.30 0.00 87 1011.7
20260904020533 17 298 0.0 0.0 0.00 0.30 0.00 87 1011.7
20260904020033 17 298 0.0 0.0 0.00 0.30 0.00 86 1011.6
20260904015532 18 296 0.0 0.0 0.00 0.41 0.00 86 1011.6
20260904015032 18 296 0.0 0.0 0.00 0.41 0.00 86 1011.6
20260904014536 18 296 0.0 0.0 0.00 0.41 0.00 85 1011.6
20260904014034 18 296 0.0 0.0 0.00 0.41 0.00 85 1011.7
20260904013532 18 296 0.0 0.0 0.00 0.41 0.00 85 1011.6
20260904013036 18 296 0.0 0.0 0.00 0.41 0.00 85 1011.7
20260904012534 18 296 0.0 0.0 0.00 0.41 0.00 85 1011.7
20260904012032 18 296 0.0 0.0 0.00 0.41 0.00 85 1011.7
20260904011536 18 296 0.0 0.0 0.00 0.41 0.00 85 1011.5
20260904011033 18 296 0.0 0.0 0.00 0.41 0.00 86 1011.4
20260904010532 18 296 0.0 0.0 0.00 0.41 0.00 85 1011.5
20260904010039 18 296 0.0 0.0 0.00 0.41 0.00 85 1011.5
20260904005530 18 296 0.0 0.0 0.00 0.41 0.00 85 1011.4
20260904005030 18 296 0.0 0.0 0.00 0.41 0.00 84 1011.5
20260904004530 18 296 0.0 0.0 0.00 0.41 0.00 84 1011.4
20260904004030 18 296 0.0 0.0 0.00 0.41 0.00 83 1011.3
20260904003530 18 296 0.0 0.0 0.00 0.41 0.00 83 1011.3
20260904003033 18 296 0.0 0.0 0.00 0.41 0.00 81 1011.2
20260904002529 18 296 0.0 0.0 0.00 0.41 0.00 82 1011.1
20260904002030 18 296 0.0 0.0 0.00 0.41 0.00 83 1011.2
20260904001533 18 296 0.0 0.0 0.00 0.41 0.00 82 1011.1
20260904001028 18 296 0.0 0.0 0.00 0.41 0.00 80 1011.2
20260904000529 18 296 0.0 0.0 0.00 0.41 0.00 80 1011.1
20260904000029 18 296 0.0 0.0 0.00 0.41 0.00 80 1011.3
20260903235528 19 296 0.0 0.0 0.00 0.41 0.00 78 1011.2
20260903235028 19 296 0.0 0.0 0.00 0.41 0.00 78 1011.1
20260903234528 19 296 0.0 0.0 0.00 0.41 0.00 79 1011.1
20260903234028 19 296 0.0 0.0 0.00 0.41 0.00 79 1011.1
20260903233528 19 296 0.0 0.0 0.00 0.41 0.00 79 1011.1
20260903233029 20 296 0.0 0.0 0.00 0.41 0.00 79 1010.9
20260903232527 20 296 0.0 0.0 0.00 0.41 0.00 77 1010.9
20260903232028 20 297 0.0 0.0 0.00 0.41 0.00 76 1011.2
20260903231533 20 297 0.0 0.0 0.00 0.41 0.00 77 1011.1
20260903231026 20 297 0.0 0.0 0.00 0.41 0.00 77 1010.9
20260903230528 21 297 0.0 0.0 0.00 0.41 0.00 77 1011.0
20260903230032 21 297 0.0 0.0 0.00 0.41 0.00 76 1011.0
20260903225528 21 297 0.0 0.0 0.00 0.41 0.00 77 1010.9
20260903225027 21 297 0.0 0.0 0.00 0.41 0.00 74 1010.8
20260903224547 21 297 0.0 0.0 0.00 0.41 0.00 75 1011.0
20260903224026 22 297 0.0 0.0 0.00 0.41 0.00 76 1011.0
20260903223526 22 297 0.0 0.0 0.00 0.41 0.00 75 1011.1
20260903223027 22 297 0.0 0.0 0.00 0.41 0.00 71 1011.0
20260903222528 22 297 0.0 0.0 0.00 0.41 0.00 71 1011.0
20260903222026 22 297 0.0 0.0 0.00 0.41 0.00 70 1010.9
20260903221532 22 297 0.0 0.0 0.00 0.41 0.00 69 1010.9
20260903221024 22 297 0.0 0.0 0.00 0.41 0.00 66 1010.9
20260903220528 22 297 0.0 0.0 0.00 0.41 0.00 67 1010.9
20260903220025 23 297 0.0 1.6 0.00 0.41 0.00 63 1010.9
20260903215524 23 298 0.0 9.7 0.00 0.41 0.00 59 1010.9
20260903215025 23 298 1.6 9.7 0.00 0.41 0.00 58 1010.9
20260903214536 23 303 3.2 11.3 0.00 0.41 0.00 58 1010.9
20260903214024 23 309 4.8 16.1 0.00 0.41 0.00 57 1010.9
20260903213525 23 290 6.4 16.1 0.00 0.41 0.00 56 1010.9
20260903213028 23 299 4.8 16.1 0.00 0.41 0.00 55 1010.9
20260903212526 23 325 8.0 16.1 0.00 0.41 0.00 54 1010.9
20260903212023 23 344 8.0 16.1 0.00 0.41 0.00 55 1011.0
20260903211521 23 304 8.0 14.5 0.00 0.41 0.00 55 1011.1
20260903211021 23 309 8.0 14.5 0.00 0.41 0.00 57 1011.2
20260903210522 23 310 4.8 14.5 0.00 0.41 0.00 59 1011.1
20260903210022 23 288 4.8 16.1 0.00 0.41 0.00 58 1011.1
20260903205521 23 300 4.8 16.1 0.00 0.41 0.00 56 1011.1
20260903205021 23 309 6.4 20.9 0.00 0.41 0.00 56 1011.1
20260903204522 24 281 6.4 27.4 0.00 0.41 0.00 55 1011.2
20260903204021 24 292 14.5 29.0 0.00 0.41 0.00 54 1011.2
20260903203520 25 269 11.3 19.3 0.00 0.41 0.00 56 1011.2
20260903203019 24 307 4.8 14.5 0.00 0.41 0.00 57 1011.3
20260903202519 24 277 6.4 19.3 0.00 0.41 0.00 57 1011.2
20260903202019 24 311 4.8 19.3 0.00 0.41 0.00 56 1011.2
20260903201518 24 296 8.0 16.1 0.00 0.41 0.00 56 1011.1
20260903201020 24 315 6.4 14.5 0.00 0.41 0.00 58 1011.0
20260903200517 24 284 8.0 17.7 0.00 0.41 0.00 57 1011.2
20260903200018 24 308 6.4 22.5 0.00 0.41 0.00 56 1011.2
20260903195517 24 303 11.3 22.5 0.00 0.41 0.00 57 1011.2
20260903195016 24 275 9.7 19.3 0.00 0.41 0.00 58 1011.2
20260903194516 24 312 8.0 24.1 0.00 0.41 0.00 57 1011.3
20260903194015 24 297 11.3 24.1 0.00 0.41 0.00 55 1011.2
20260903193515 24 306 8.0 19.3 0.00 0.41 0.00 57 1011.2
20260903193014 24 306 8.0 22.5 0.00 0.41 0.00 61 1011.3
20260903192513 24 296 6.4 22.5 0.00 0.41 0.00 58 1011.4
20260903192012 24 316 9.7 19.3 0.00 0.41 0.00 62 1011.4
20260903191514 24 298 11.3 19.3 0.00 0.41 0.00 62 1011.4
20260903191012 24 282 6.4 22.5 0.00 0.41 0.00 63 1011.4
20260903190512 24 303 14.5 22.5 0.00 0.41 0.00 61 1011.5
20260903190011 24 290 8.0 16.1 0.00 0.41 0.00 66 1011.5
20260903185510 24 290 8.0 20.9 0.00 0.41 0.00 67 1011.5
20260903185010 24 292 11.3 20.9 0.00 0.41 0.00 68 1011.2
20260903184509 23 311 11.3 22.5 0.00 0.41 0.00 66 1011.4
20260903184008 23 276 4.8 22.5 0.00 0.41 0.00 68 1011.5
20260903183510 23 301 12.9 20.9 0.00 0.41 0.00 66 1011.6
20260903183008 23 291 11.3 24.1 0.00 0.41 0.00 67 1011.5
20260903182511 23 313 12.9 20.9 0.00 0.41 0.00 69 1011.6
20260903182008 24 297 11.3 20.9 0.00 0.41 0.00 69 1011.6
20260903181505 23 275 11.3 24.1 0.00 0.41 0.00 67 1011.5
20260903181004 23 305 11.3 24.1 0.00 0.41 0.00 65 1011.5
20260903180503 23 291 9.7 25.7 0.00 0.41 0.00 69 1011.5
20260903180002 23 315 12.9 24.1 0.00 0.41 0.00 69 1011.5
20260903175501 22 294 12.9 20.9 0.00 0.41 0.00 71 1011.7
20260903175002 22 296 14.5 25.7 0.00 0.41 0.00 74 1011.7
20260903174502 23 294 17.7 25.7 0.00 0.41 0.00 74 1011.7
20260903174002 23 308 16.1 24.1 0.00 0.41 0.00 73 1011.6
20260903173600 23 290 8.0 17.7 0.00 0.41 0.00 76 1011.6
20260903173059 22 305 3.2 17.7 0.00 0.41 0.00 79 1011.7
20260903172558 22 294 4.8 14.5 0.00 0.41 0.00 78 1011.8
20260903172057 22 313 6.4 17.7 0.00 0.41 0.00 79 1011.7
20260903171558 22 275 4.8 17.7 0.00 0.41 0.00 79 1011.8
20260903171056 22 306 8.0 17.7 0.00 0.41 0.00 79 1011.9
20260903170556 22 327 4.8 14.5 0.00 0.41 0.00 81 1011.8
20260903170056 22 288 6.4 20.9 0.00 0.41 0.00 81 1011.9
20260903165555 22 306 9.7 20.9 0.00 0.71 0.00 81 1011.8
20260903165055 22 297 8.0 17.7 0.00 0.71 0.00 82 1011.9
20260903164557 22 302 6.4 19.3 0.00 0.71 0.00 81 1011.9